Location: Unspecified
(39.0670°S, 0.0000°E)
Time: 10:17:00
(UTC+00:00)

Envisat - Pass Details

Date: 05 July 2019
Orbit: 764 x 766 km, 98.1° (Epoch: 19 July)

Event Time Altitude Azimuth Distance (km) Brightness Sun altitude
Exits shadow 18:25:44 25° 69° (ENE) 1,524 4.1 -18.0°
Drops below altitude 10° 18:29:07 10° 29° (NNE) 2,308 5.3 -18.7°
Sets 18:31:46 0° 16° (NNE) 3,225 6.2 -19.2°
